Terminal Aerodrome Forecast
Issued by NWS Northern Indiana

Home | Current Version | Previous Version | Graphics & Text | Print | Product List | Glossary On
Versions: 1 2 3 4 5 6 7 8 9 10 11 12 13 14 15 16 17 18
000
FTUS43 KIWX 151400 AAA
TAFFWA
TAF AMD
KFWA 151436Z 1515/1612 22006KT P6SM -SHRA OVC060
      TEMPO 1515/1517 6SM -TSRA OVC050CB
     FM152100 30008KT 5SM -RA OVC020
      TEMPO 1523/1603 3SM -RA BR OVC010
     FM160800 35003KT 6SM BR SCT020=

USA.gov is the U.S. government's official web portal to all federal, state and local government web resources and services.